KA8DUX-2 Weather Reports


time (UTC)temp
F
wind
direction
speed
knots
gust
knots
rain 1hr
in
rain 24hr
in
rain mn
in
humidity
%
barometer
mb
20260503021945 41 131 0.0 0.0 0.00 0.00 0.00 61 1014.9
20260503021442 41 131 0.0 0.0 0.00 0.00 0.00 61 1014.8
20260503020940 41 136 0.0 0.0 0.00 0.00 0.00 60 1014.7
20260503020437 41 127 0.0 0.0 0.00 0.00 0.00 60 1015.1
20260503015933 42 128 0.0 0.0 0.00 0.00 0.00 59 1014.7
20260503015430 42 143 0.0 0.0 0.00 0.00 0.00 58 1014.9
20260503014926 42 158 0.0 0.0 0.00 0.00 0.00 57 1014.9
20260503014424 42 137 0.0 0.0 0.00 0.00 0.00 57 1014.9
20260503013922 42 133 0.0 0.0 0.00 0.00 0.00 56 1014.8
20260503013418 43 135 0.0 0.0 0.00 0.00 0.00 56 1014.8
20260503012916 43 128 0.0 0.0 0.00 0.00 0.00 54 1014.6
20260503012414 44 161 0.0 0.0 0.00 0.00 0.00 52 1014.8
20260503011909 44 156 0.0 0.0 0.00 0.00 0.00 52 1015.0
20260503011407 44 161 0.9 0.9 0.00 0.00 0.00 50 1014.7
20260503010903 44 146 0.9 0.9 0.00 0.00 0.00 50 1014.7
20260503010400 45 154 0.0 0.0 0.00 0.00 0.00 50 1014.6
20260503005857 45 146 0.0 0.0 0.00 0.00 0.00 50 1014.8
20260503005355 45 236 0.9 0.9 0.00 0.00 0.00 49 1014.7
20260503004850 46 226 1.7 1.7 0.00 0.00 0.00 48 1014.8
20260503004348 46 150 0.9 1.7 0.00 0.00 0.00 47 1014.8
20260503003846 46 225 0.9 0.9 0.00 0.00 0.00 46 1014.6
20260503003342 46 151 0.0 0.9 0.00 0.00 0.00 46 1014.7
20260503002839 47 163 0.9 0.9 0.00 0.00 0.00 46 1014.5
20260503002337 47 206 0.9 1.7 0.00 0.00 0.00 45 1014.7
20260503001833 47 229 0.0 1.7 0.00 0.00 0.00 46 1014.6
20260503001329 47 251 1.7 2.6 0.00 0.00 0.00 44 1014.5
20260503000827 48 156 0.9 0.9 0.00 0.00 0.00 44 1014.5
20260503000325 48 249 1.7 1.7 0.00 0.00 0.00 42 1014.6
20260502235821 49 266 1.7 2.6 0.00 0.00 0.00 41 1014.6
20260502235318 49 154 0.0 0.9 0.00 0.00 0.00 41 1014.8
20260502234815 49 136 0.0 0.0 0.00 0.00 0.00 41 1014.8
20260502234312 49 251 1.7 1.7 0.00 0.00 0.00 40 1014.5
20260502233808 49 127 0.9 0.9 0.00 0.00 0.00 39 1014.8
20260502233305 49 139 0.9 0.9 0.00 0.00 0.00 39 1014.8
20260502232801 49 181 0.9 0.9 0.00 0.00 0.00 38 1014.6
20260502232258 49 145 0.0 0.0 0.00 0.00 0.00 39 1014.7
20260502231754 50 169 0.0 0.0 0.00 0.00 0.00 38 1014.9
20260502231252 50 117 0.0 0.9 0.00 0.00 0.00 38 1014.7
20260502230751 50 223 0.9 1.7 0.00 0.00 0.00 36 1015.0
20260502230248 50 225 1.7 2.6 0.00 0.00 0.00 36 1014.9
20260502225745 51 254 1.7 1.7 0.00 0.00 0.00 37 1014.9
20260502225242 50 247 0.9 1.7 0.00 0.00 0.00 36 1014.9
20260502224738 51 330 0.9 1.7 0.00 0.00 0.00 37 1014.9
20260502224235 52 267 0.9 0.9 0.00 0.00 0.00 35 1014.9
20260502223732 53 137 0.0 0.9 0.00 0.00 0.00 37 1015.0
20260502223230 52 252 0.9 0.9 0.00 0.00 0.00 36 1014.9
20260502222727 52 261 2.6 4.3 0.00 0.00 0.00 35 1014.8
20260502222224 52 200 2.6 4.3 0.00 0.00 0.00 35 1015.0
20260502221720 52 215 1.7 2.6 0.00 0.00 0.00 36 1014.9
20260502221217 52 174 0.9 1.7 0.00 0.00 0.00 37 1015.1
20260502220713 52 131 0.9 1.7 0.00 0.00 0.00 36 1015.1
20260502220209 51 203 2.6 2.6 0.00 0.00 0.00 37 1015.1
20260502215707 51 187 0.9 1.7 0.00 0.00 0.00 37 1014.9
20260502215204 50 145 1.7 1.7 0.00 0.00 0.00 39 1015.0
20260502214701 51 287 2.6 2.6 0.00 0.00 0.00 38 1014.9
20260502214158 51 241 1.7 5.2 0.00 0.00 0.00 40 1015.1
20260502213655 51 326 2.6 4.3 0.00 0.00 0.00 39 1015.1
20260502213152 52 269 2.6 2.6 0.00 0.00 0.00 40 1015.1
20260502212651 51 153 1.7 2.6 0.00 0.00 0.00 39 1015.4
20260502212149 50 200 2.6 2.6 0.00 0.00 0.00 39 1015.1
20260502211644 52 227 3.5 5.2 0.00 0.00 0.00 38 1015.1
20260502211141 52 179 0.9 0.9 0.00 0.00 0.00 40 1015.2
20260502210639 52 15 2.6 2.6 0.00 0.00 0.00 40 1015.1
20260502210136 53 242 0.9 1.7 0.00 0.00 0.00 38 1015.1
20260502205632 52 264 3.5 6.1 0.00 0.00 0.00 40 1015.2
20260502205129 52 290 2.6 2.6 0.00 0.00 0.00 39 1015.3
20260502204626 53 178 0.9 0.9 0.00 0.00 0.00 42 1015.3
20260502204118 53 164 1.7 1.7 0.00 0.00 0.00 42 1015.4
20260502203614 53 51 1.7 1.7 0.00 0.00 0.00 40 1015.4
20260502203107 53 258 2.6 2.6 0.00 0.00 0.00 41 1015.5
20260502202602 53 131 1.7 1.7 0.00 0.00 0.00 40 1015.7
20260502202100 53 137 1.7 1.7 0.00 0.00 0.00 41 1015.7
20260502201556 51 339 2.6 2.6 0.00 0.00 0.00 43 1015.6
20260502201053 51 289 1.7 1.7 0.00 0.00 0.00 43 1015.8
20260502200548 51 31 1.7 2.6 0.00 0.00 0.00 46 1015.7
20260502200047 50 277 0.9 1.7 0.00 0.00 0.00 45 1015.8
20260502195544 51 253 1.7 2.6 0.00 0.00 0.00 43 1016.1
20260502195040 50 225 1.7 2.6 0.00 0.00 0.00 45 1016.0
20260502194537 51 58 2.6 2.6 0.00 0.00 0.00 44 1016.0
20260502194033 50 27 0.9 1.7 0.00 0.00 0.00 47 1016.1
20260502193531 49 219 0.9 1.7 0.00 0.00 0.00 46 1016.1
20260502193027 50 156 2.6 2.6 0.00 0.00 0.00 45 1016.1
20260502192522 51 279 1.7 2.6 0.00 0.00 0.00 45 1016.1
20260502192020 50 181 4.3 6.1 0.00 0.00 0.00 45 1016.1
20260502191517 51 111 0.9 2.6 0.00 0.00 0.00 45 1016.2
20260502191015 51 259 1.7 1.7 0.00 0.00 0.00 45 1016.2
20260502190512 50 111 0.9 0.9 0.00 0.00 0.00 46 1016.3
20260502190009 50 117 1.7 1.7 0.00 0.00 0.00 49 1016.4
20260502185504 50 356 2.6 2.6 0.00 0.00 0.00 46 1016.4
20260502185001 51 312 2.6 2.6 0.00 0.00 0.00 46 1016.4
20260502184456 51 146 0.9 0.9 0.00 0.00 0.00 47 1016.2
20260502183953 48 127 1.7 1.7 0.00 0.00 0.00 48 1016.9
20260502183449 49 199 0.9 0.9 0.00 0.00 0.00 49 1016.4
20260502182944 49 290 3.5 4.3 0.00 0.00 0.00 49 1016.7
20260502182440 49 107 0.9 1.7 0.00 0.00 0.00 49 1016.7
20260502181936 49 79 0.0 0.9 0.00 0.00 0.00 47 1016.8
20260502181435 49 133 0.9 1.7 0.00 0.00 0.00 46 1016.7
20260502180933 48 268 1.7 2.6 0.00 0.00 0.00 47 1016.8
20260502180430 48 278 4.3 6.1 0.00 0.00 0.00 46 1016.8
20260502170349 49 154 0.9 1.7 0.00 0.00 0.00 48 1017.3
20260502164336 48 120 0.9 0.9 0.00 0.00 0.00 51 1017.5
20260502163832 46 123 0.9 1.7 0.00 0.00 0.00 53 1017.4
20260502163328 46 270 2.6 2.6 0.00 0.00 0.00 52 1017.2
20260502162826 47 223 2.6 2.6 0.00 0.00 0.00 51 1017.5
20260502162322 47 216 0.9 1.7 0.00 0.00 0.00 51 1017.6
20260502161820 47 348 4.3 7.0 0.00 0.00 0.00 50 1017.4
20260502161316 46 160 1.7 2.6 0.00 0.00 0.00 51 1017.6
20260502160814 46 198 0.9 1.7 0.00 0.00 0.00 54 1017.6
20260502160312 45 193 2.6 2.6 0.00 0.00 0.00 55 1017.7
20260502152241 46 131 1.7 1.7 0.00 0.00 0.00 52 1017.5
20260502151739 46 215 0.9 0.9 0.00 0.00 0.00 52 1017.5
20260502151236 47 114 2.6 2.6 0.00 0.00 0.00 50 1017.8
20260502150733 48 195 1.7 2.6 0.00 0.00 0.00 48 1017.5
20260502150230 48 318 4.3 6.1 0.00 0.00 0.00 49 1017.8
20260502130618 39 311 0.9 0.9 0.00 0.00 0.00 73 1018.0
20260502130116 39 341 2.6 2.6 0.00 0.00 0.00 75 1018.1
20260502123602 37 74 0.9 0.9 0.00 0.00 0.00 82 1018.2
20260502123058 37 197 0.0 0.0 0.00 0.00 0.00 84 1018.1
20260502122555 37 79 0.9 1.7 0.00 0.00 0.00 85 1018.1
20260502122052 36 317 2.6 2.6 0.00 0.00 0.00 86 1017.8
20260502121549 36 116 0.0 0.9 0.00 0.00 0.00 88 1018.1
20260502121047 35 309 0.9 1.7 0.00 0.00 0.00 90 1018.0
20260502120543 33 134 0.0 0.0 0.00 0.00 0.00 91 1018.1
20260502115538 32 119 0.0 0.0 0.00 0.00 0.00 93 1017.9
20260502115033 32 130 0.0 0.0 0.00 0.00 0.00 93 1018.0
20260502114530 31 135 0.0 0.0 0.00 0.00 0.00 93 1017.9
20260502114027 31 130 0.0 0.0 0.00 0.00 0.00 93 1017.9
20260502113525 31 129 0.0 0.0 0.00 0.00 0.00 93 1017.9
20260502113024 30 134 0.0 0.0 0.00 0.00 0.00 93 1017.8
20260502112521 30 129 0.0 0.0 0.00 0.00 0.00 93 1017.9
20260502112018 30 130 0.0 0.0 0.00 0.00 0.00 93 1017.6
20260502111515 29 130 0.0 0.0 0.00 0.00 0.00 93 1017.8
20260502111013 30 133 0.0 0.0 0.00 0.00 0.00 93 1017.7
20260502110510 30 133 0.0 0.0 0.00 0.00 0.00 92 1017.7
20260502110008 30 130 0.0 0.0 0.00 0.00 0.00 92 1017.6
20260502105505 30 132 0.0 0.0 0.00 0.00 0.00 92 1017.7
20260502105002 30 129 0.0 0.0 0.00 0.00 0.00 91 1017.8
20260502104459 30 131 0.0 0.0 0.00 0.00 0.00 92 1017.7
20260502103956 30 127 0.0 0.0 0.00 0.00 0.00 92 1017.5
20260502103454 30 127 0.0 0.0 0.00 0.00 0.00 91 1017.5
20260502102951 30 128 0.0 0.0 0.00 0.00 0.00 91 1017.6
20260502102448 31 126 0.0 0.0 0.00 0.00 0.00 90 1017.7
20260502101944 31 126 0.0 0.0 0.00 0.00 0.00 89 1017.5
20260502101443 31 129 0.0 0.0 0.00 0.00 0.00 89 1017.6
20260502100941 31 129 0.0 0.0 0.00 0.00 0.00 88 1017.5
20260502100440 32 129 0.0 0.0 0.00 0.00 0.00 88 1017.6
20260502091414 33 129 0.0 0.0 0.00 0.00 0.00 83 1017.3
20260502090911 34 133 0.0 0.0 0.00 0.00 0.00 82 1017.3
20260502090408 34 136 0.0 0.0 0.00 0.00 0.00 82 1017.3
20260502071303 35 134 0.0 0.0 0.00 0.00 0.00 79 1016.9
20260502070801 35 134 0.0 0.0 0.00 0.00 0.00 78 1017.2
20260502070258 35 134 0.0 0.0 0.00 0.00 0.00 78 1017.1
20260502065757 35 152 0.0 0.0 0.00 0.00 0.00 78 1017.2
20260502065254 35 135 0.0 0.0 0.00 0.00 0.00 79 1017.0
20260502064753 35 135 0.0 0.0 0.00 0.00 0.00 78 1017.1
20260502064250 35 129 0.0 0.0 0.00 0.00 0.00 78 1017.0
20260502063747 35 131 0.0 0.0 0.00 0.00 0.00 78 1017.2
20260502063245 35 128 0.0 0.0 0.00 0.00 0.00 78 1017.0
20260502062742 35 127 0.0 0.0 0.00 0.00 0.00 78 1017.1
20260502062239 35 124 0.0 0.0 0.00 0.00 0.00 78 1017.3
20260502061738 35 128 0.0 0.0 0.00 0.00 0.00 77 1017.2
20260502061235 35 127 0.0 0.0 0.00 0.00 0.00 78 1017.5
20260502060730 35 131 0.0 0.0 0.00 0.00 0.00 78 1017.4
20260502060226 35 132 0.0 0.0 0.00 0.00 0.00 77 1017.2
20260502055725 35 130 0.0 0.0 0.00 0.00 0.00 77 1017.1
20260502055222 36 128 0.0 0.0 0.00 0.00 0.00 76 1017.3
20260502054721 36 132 0.0 0.0 0.00 0.00 0.00 76 1017.3
20260502054218 36 127 0.0 0.0 0.00 0.00 0.00 76 1017.3
20260502053716 36 140 0.0 0.0 0.00 0.00 0.00 75 1017.3
20260502053212 36 92 0.0 0.0 0.00 0.00 0.00 75 1017.2
20260502052711 36 133 0.0 0.0 0.00 0.00 0.00 75 1017.2
20260502052209 36 130 0.0 0.0 0.00 0.00 0.00 74 1017.2
20260502051706 36 135 0.0 0.0 0.00 0.00 0.00 74 1017.4
20260502051205 37 130 0.0 0.0 0.00 0.00 0.00 74 1017.3
20260502050700 37 134 0.0 0.0 0.00 0.00 0.00 73 1017.3
20260502050157 36 113 0.9 0.9 0.00 0.00 0.00 73 1017.2
20260502045654 36 127 0.0 0.0 0.00 0.00 0.00 74 1017.2
20260502045151 36 128 0.0 0.0 0.00 0.00 0.00 73 1017.1
20260502044648 37 129 0.0 0.0 0.00 0.00 0.00 72 1017.1
20260502044144 37 136 0.0 0.0 0.00 0.00 0.00 72 1017.0
20260502043642 37 275 0.9 1.7 0.00 0.00 0.00 71 1017.2
20260502043139 37 129 0.0 0.0 0.00 0.00 0.00 71 1017.1
20260502042638 37 99 0.9 0.9 0.00 0.00 0.00 71 1017.0
20260502042135 37 139 0.9 0.9 0.00 0.00 0.00 70 1017.0
20260502041633 38 119 0.9 0.9 0.00 0.00 0.00 70 1017.0
20260502041130 38 98 0.9 1.7 0.00 0.00 0.00 69 1016.9
20260502040627 38 153 0.0 0.0 0.00 0.00 0.00 69 1016.8
20260502040124 38 109 1.7 2.6 0.00 0.00 0.00 69 1017.1
20260502035620 38 220 0.0 0.9 0.00 0.00 0.00 69 1017.0
20260502035117 38 89 1.7 1.7 0.00 0.00 0.00 68 1016.9
20260502034615 38 121 0.9 0.9 0.00 0.00 0.00 68 1017.0
20260502034113 38 349 2.6 2.6 0.00 0.00 0.00 68 1016.9
20260502033611 38 95 1.7 1.7 0.00 0.00 0.00 68 1016.9
20260502033108 38 130 0.0 0.9 0.00 0.00 0.00 68 1016.9
20260502032604 38 131 2.6 4.3 0.00 0.00 0.00 67 1016.8
20260502032101 38 92 1.7 1.7 0.00 0.00 0.00 67 1016.7
20260502031559 39 109 0.0 0.9 0.00 0.00 0.00 67 1016.7
20260502031056 39 293 2.6 2.6 0.00 0.00 0.00 66 1016.9
20260502030555 39 129 0.0 0.9 0.00 0.00 0.00 66 1016.8
20260502030052 39 339 2.6 2.6 0.00 0.00 0.00 65 1016.8
20260502025549 39 303 2.6 2.6 0.00 0.00 0.00 64 1016.5
20260502025048 39 299 2.6 2.6 0.00 0.00 0.00 64 1016.7
20260502024545 39 2 1.7 1.7 0.00 0.00 0.00 64 1016.8
20260502024043 39 121 0.9 1.7 0.00 0.00 0.00 63 1016.5
20260502023540 39 313 4.3 6.1 0.00 0.00 0.00 63 1016.5
20260502023037 39 89 0.9 0.9 0.00 0.00 0.00 62 1016.7
20260502022534 39 354 3.5 5.2 0.00 0.00 0.00 61 1016.7